Location: LewisvilleTX
(33.0462°N, 96.9942°W)
Time: 18:45:51
(UTC+00:00)

Envisat - Visible Passes

Search period start: 26 September 2021 00:00
Search period end: 06 October 2021 00:00
Orbit: 764 x 766 km, 98.2° (Epoch: 25 September)

Date Brightness Start Highest point End Pass type
(mag) Time Alt. Az. Time Alt. Az. Time Alt. Az.
26 Sep 3.0 11:45:37 10° N 11:50:41 72° WNW 11:55:44 10° SSW visible
27 Sep 4.1 11:08:58 10° NNE 11:13:51 46° E 11:18:42 10° S visible
28 Sep 5.7 10:33:14 10° NE 10:36:50 19° E 10:40:24 10° SE visible
29 Sep 3.0 11:34:06 10° NNE 11:39:12 87° ESE 11:44:16 10° SSW visible
30 Sep 4.6 10:57:39 10° NNE 11:02:18 35° E 11:06:55 10° SSE visible
01 Oct 6.0 10:22:28 10° ENE 10:25:14 15° E 10:27:58 10° SE visible
02 Oct 3.4 11:22:37 10° NNE 11:27:41 67° ESE 11:32:43 10° S visible
03 Oct 5.1 10:46:27 10° NE 10:50:44 27° E 10:55:00 10° SSE visible
04 Oct 6.2 10:12:27 10° ENE 10:13:36 11° E 10:14:46 10° ESE visible
04 Oct 3.0 11:47:56 10° N 11:52:59 66° WNW 11:58:00 10° SSW visible
05 Oct 3.9 11:11:13 10° NNE 11:16:09 51° E 11:21:04 10° S visible
